Regional Weather Roundup
Issued by NWS

Home | Current Version | Previous Version | Text Only | Print | Product List | Glossary On
Versions: 1 2 3 4 5 6 7 8 9 10 11 12 13 14 15 16 17 18 19 20 21 22 23 24 25 26 27 28 29 30 31 32 33 34 35 36 37 38 39 40 41 42 43 44 45 46 47 48 49 50
000
ASUS43 KLSX 300459
RWRMO

WEATHER SUMMARY FOR MISSOURI
NATIONAL WEATHER SERVICE SPRINGFIELD MO
1200 AM CDT TUE SEP 30 2014

NOTE: "FAIR" INDICATES FEW OR NO CLOUDS BELOW 12,000 FEET WITH NO
       SIGNIFICANT WEATHER AND/OR OBSTRUCTIONS TO VISIBILITY.
       CURRENT SKY AND/OR WEATHER CONDITIONS ARE NOT AVAILABLE FOR
       CHILLICOTHE AND FARMINGTON.

MOZ001>031-035>038-043-044-053-054-300600-
...NORTHERN AND WESTERN MISSOURI...

CITY           SKY/WX    TMP DP  RH WIND       PRES   REMARKS
KANSAS CTY INT CLEAR     66  58  75 SE7       29.97R
KANSAS C DTWN  CLEAR     69  62  78 NW3       29.96R
LEE`S SUMMIT   CLEAR     70  58  65 S7        29.97S
ST JOSEPH      CLEAR     61  57  87 CALM      29.96R
CHILLICOTHE      N/A     60  58  92 CALM      29.98R
KIRKSVILLE     CLEAR     58  56  93 CALM      29.97S

$$
MOZ066>068-077>081-088>096-101>105-300600-
...SOUTHWEST MISSOURI...

CITY           SKY/WX    TMP DP  RH WIND       PRES   REMARKS
SPRINGFIELD    CLEAR     64  57  78 CALM      29.97S
JOPLIN         CLEAR     68  57  68 CALM      29.97R

$$
MOZ032>034-039>042-045>050-055>058-069>072-300600-
...CENTRAL MISSOURI...

CITY           SKY/WX    TMP DP  RH WIND       PRES   REMARKS
COLUMBIA       CLEAR     66  58  75 SE5       29.97S
JEFFERSON CITY CLEAR     60  58  92 CALM      29.96S
ROLLA          CLEAR     66  53  63 SE8       29.97S
SEDALIA        CLEAR     64  58  80 CALM      29.97S
OSAGE BEACH    CLEAR     61  55  82 E3        29.96F

$$
MOZ051-052-059>065-300600-
...EAST CENTRAL MISSOURI...

CITY           SKY/WX    TMP DP  RH WIND       PRES   REMARKS
ST LOUIS INTL  CLEAR     70  58  65 CALM      29.96S
SPIRIT OF STL  CLEAR     59  58  96 CALM      29.95S
ST CHARLES     CLEAR     61  58  90 CALM      29.95S

$$
MOZ072>076-082>087-097>100-106>115-300600-
...SOUTH CENTRAL AND SOUTHEAST MISSOURI...

CITY           SKY/WX    TMP DP  RH WIND       PRES   REMARKS
CAPE GIRARDEAU CLEAR     57  55  93 CALM      29.96S
FARMINGTON     CLEAR     59  55  88 CALM      30.00S
POPLAR BLUFF   CLEAR     59  55  87 N3        29.95S
WEST PLAINS    CLEAR     62  59  90 CALM      30.00S

$$


USA.gov is the U.S. government's official web portal to all federal, state and local government web resources and services.